CW5629 Weather Reports


Display with metric or nautical units.
time (UTC)temp
F
wind
direction
speed
MPH
gust
MPH
rain 1hr
in
rain 24hr
in
rain mn
in
humidity
%
barometer
mb
20260507165131 58 97 0.0 1.0 0.00 0.00 0.00 59 1013.7
20260507164144 58 119 0.0 1.0 0.00 0.00 0.00 61 1013.6
20260507163115 58 115 0.0 1.0 0.00 0.00 0.00 63 1013.7
20260507162121 58 105 0.0 1.0 0.00 0.00 0.00 61 1013.6
20260507161113 59 133 0.0 2.0 0.00 0.00 0.00 60 1013.7
20260507160120 59 126 0.0 2.0 0.00 0.00 0.00 58 1013.7
20260507155114 60 127 0.0 6.0 0.00 0.00 0.00 55 1013.8
20260507154127 61 110 0.0 2.0 0.00 0.00 0.00 57 1013.8
20260507153113 61 80 0.0 3.0 0.00 0.00 0.00 56 1013.7
20260507152126 61 115 0.0 4.0 0.00 0.00 0.00 54 1013.8
20260507151132 61 120 0.0 2.0 0.00 0.00 0.00 54 1013.8
20260507150122 61 98 0.0 3.0 0.00 0.00 0.00 57 1013.9
20260507145136 62 112 0.0 3.0 0.00 0.00 0.00 52 1014.0
20260507144141 62 129 0.0 2.0 0.00 0.00 0.00 50 1014.0
20260507143114 62 117 0.0 3.0 0.00 0.00 0.00 52 1014.0
20260507142128 62 94 0.0 2.0 0.00 0.00 0.00 52 1014.1
20260507141113 62 123 0.0 5.0 0.00 0.00 0.00 54 1014.3
20260507140147 61 110 0.0 3.0 0.00 0.00 0.00 55 1014.4
20260507135139 61 110 0.0 3.0 0.00 0.00 0.00 54 1014.4
20260507134124 60 106 0.0 4.0 0.00 0.00 0.00 53 1014.3
20260507133118 61 108 0.0 3.0 0.00 0.00 0.00 51 1014.3
20260507132151 62 113 1.0 2.0 0.00 0.00 0.00 51 1014.4
20260507131115 63 288 1.0 3.0 0.00 0.00 0.00 52 1014.5
20260507130129 62 134 0.0 2.0 0.00 0.00 0.00 56 1014.4
20260507125143 61 336 1.0 5.0 0.00 0.00 0.00 60 1014.4
20260507124134 61 101 0.0 4.0 0.00 0.00 0.00 64 1014.3
20260507123120 61 114 0.0 4.0 0.00 0.00 0.00 66 1014.5
20260507122153 61 124 0.0 4.0 0.00 0.00 0.00 70 1014.6
20260507121146 59 76 0.0 3.0 0.00 0.00 0.00 73 1014.5
20260507120138 58 91 0.0 2.0 0.00 0.00 0.00 77 1014.6
20260507115125 57 117 0.0 2.0 0.00 0.00 0.00 78 1014.7
20260507114138 57 95 0.0 2.0 0.00 0.00 0.00 77 1014.7
20260507113124 57 133 0.0 2.0 0.00 0.00 0.00 76 1014.7
20260507112136 57 339 1.0 3.0 0.00 0.00 0.00 77 1014.6
20260507111122 58 127 0.0 1.0 0.00 0.00 0.00 77 1014.7
20260507110136 58 107 0.0 3.0 0.00 0.00 0.00 75 1014.7
20260507105147 59 116 0.0 2.0 0.00 0.00 0.00 74 1014.6
20260507104139 60 110 0.0 3.0 0.00 0.00 0.00 73 1014.7
20260507103130 60 84 0.0 3.0 0.00 0.00 0.00 74 1014.7
20260507102117 60 89 0.0 1.0 0.00 0.00 0.00 74 1014.6
20260507101130 60 143 1.0 5.0 0.00 0.00 0.00 73 1014.7
20260507100136 61 108 0.0 2.0 0.00 0.00 0.00 73 1014.8
20260507095112 60 102 0.0 2.0 0.00 0.00 0.00 74 1014.7
20260507094125 59 113 0.0 2.0 0.00 0.00 0.00 77 1014.6
20260507093110 59 125 0.0 2.0 0.00 0.00 0.00 77 1014.6
20260507092124 59 110 0.0 1.0 0.00 0.00 0.00 77 1014.5
20260507091110 59 112 0.0 2.0 0.00 0.04 0.00 79 1014.5
20260507090144 57 108 0.0 1.0 0.00 0.04 0.00 82 1014.5
20260507085116 56 112 0.0 2.0 0.00 0.04 0.00 84 1014.5
20260507084127 55 107 0.0 1.0 0.00 0.04 0.00 86 1014.6
20260507083133 55 113 0.0 2.0 0.00 0.04 0.00 87 1014.6
20260507082126 54 122 0.0 1.0 0.00 0.04 0.00 89 1014.6
20260507081118 53 115 0.0 0.0 0.00 0.20 0.00 91 1014.7
20260507080124 53 114 0.0 1.0 0.00 0.20 0.00 92 1014.7
20260507075114 52 114 0.0 1.0 0.00 0.20 0.00 93 1014.7
20260507074120 51 115 0.0 1.0 0.00 0.20 0.00 94 1014.7
20260507073133 51 115 0.0 0.0 0.00 0.20 0.00 95 1014.6
20260507072124 50 115 0.0 0.0 0.00 0.20 0.00 95 1014.6
20260507071111 49 115 0.0 0.0 0.00 0.20 0.00 95 1014.5
20260507070125 48 115 0.0 0.0 0.00 0.20 0.00 95 1014.4
20260507065119 48 115 0.0 0.0 0.00 0.20 0.00 95 1014.3
20260507064124 47 115 0.0 0.0 0.00 0.20 0.00 95 1014.3
20260507063116 47 115 0.0 0.0 0.00 0.20 0.00 95 1014.3
20260507062149 46 115 0.0 0.0 0.00 0.20 0.00 95 1014.3
20260507061114 46 115 0.0 0.0 0.00 0.20 0.00 95 1014.2
20260507060127 45 115 0.0 0.0 0.00 0.20 0.00 95 1014.1
20260507055113 45 115 0.0 0.0 0.00 0.20 0.00 95 1014.1
20260507054125 45 115 0.0 0.0 0.00 0.20 0.00 95 1014.1
20260507053116 44 115 0.0 3.0 0.00 0.20 0.00 95 1014.0
20260507052121 44 116 0.0 0.0 0.00 0.20 0.00 95 1014.0
20260507051115 44 116 0.0 0.0 0.00 0.20 0.00 95 1013.8
20260507050127 43 116 0.0 0.0 0.00 0.20 0.00 95 1013.9
20260507045112 42 116 0.0 0.0 0.00 0.20 0.00 94 1013.9
20260507044125 42 116 0.0 0.0 0.00 0.20 0.00 94 1014.0
20260507043111 41 116 0.0 0.0 0.00 0.20 0.00 93 1014.0
20260507042124 41 116 0.0 0.0 0.00 0.20 0.00 93 1014.0
20260507041133 41 116 0.0 0.0 0.00 0.20 0.00 93 1013.9
20260507040119 41 116 0.0 0.0 0.00 0.20 0.00 93 1013.9
20260507035133 41 116 0.0 0.0 0.00 0.20 0.00 93 1013.9
20260507034119 41 116 0.0 0.0 0.00 0.20 0.00 92 1013.8
20260507033117 41 116 0.0 0.0 0.00 0.20 0.00 92 1013.8
20260507032123 42 116 0.0 0.0 0.00 0.20 0.00 92 1013.7
20260507031116 42 116 0.0 0.0 0.00 0.20 0.00 93 1013.6
20260507030121 42 116 0.0 0.0 0.00 0.20 0.00 92 1013.6
20260507025115 43 116 0.0 0.0 0.00 0.20 0.00 92 1013.6
20260507024126 43 116 0.0 0.0 0.00 0.20 0.00 92 1013.6
20260507023111 44 116 0.0 0.0 0.00 0.20 0.00 93 1013.5
20260507022125 44 116 0.0 0.0 0.00 0.20 0.00 91 1013.5
20260507021137 44 116 0.0 0.0 0.00 0.20 0.00 91 1013.5
20260507020150 45 116 0.0 0.0 0.00 0.20 0.00 91 1013.5
20260507015115 44 116 0.0 0.0 0.00 0.20 0.00 90 1013.5
20260507014127 45 116 0.0 0.0 0.00 0.20 0.00 90 1013.5
20260507013113 45 116 0.0 0.0 0.00 0.20 0.00 90 1013.5
20260507012126 45 116 0.0 0.0 0.00 0.20 0.00 89 1013.5
20260507011119 46 116 0.0 0.0 0.00 0.20 0.00 88 1013.5
20260507010150 46 116 0.0 0.0 0.00 0.20 0.00 88 1013.5
20260507005115 47 116 0.0 0.0 0.00 0.20 0.00 88 1013.5
20260507004150 48 116 0.0 0.0 0.00 0.20 0.00 88 1013.5
20260507003142 48 116 0.0 0.0 0.00 0.20 0.00 88 1013.5
20260507002134 48 116 0.0 0.0 0.00 0.20 0.00 88 1013.6
20260507001119 48 116 0.0 0.0 0.00 0.20 0.00 88 1013.7
20260507000113 49 116 0.0 0.0 0.00 0.20 0.00 88 1013.8
20260506235126 49 116 0.0 0.0 0.00 0.20 0.00 87 1013.8
20260506234111 49 116 0.0 0.0 0.00 0.20 0.00 87 1013.7
20260506233124 49 116 0.0 0.0 0.00 0.20 0.00 87 1013.7
20260506232134 49 116 0.0 0.0 0.00 0.20 0.00 87 1013.7
20260506231120 49 116 0.0 0.0 0.00 0.20 0.04 86 1013.7
20260506230131 49 116 0.0 0.0 0.00 0.20 0.04 86 1013.7
20260506225143 49 116 0.0 0.0 0.00 0.20 0.04 86 1013.8
20260506224128 49 116 0.0 0.0 0.00 0.20 0.04 85 1013.8
20260506223121 49 116 0.0 0.0 0.00 0.20 0.04 85 1013.8
20260506222113 50 116 0.0 0.0 0.00 0.20 0.04 84 1013.8
20260506221124 50 116 0.0 0.0 0.00 0.20 0.04 84 1013.7
20260506220130 50 116 0.0 0.0 0.00 0.20 0.04 84 1013.7
20260506215122 50 116 0.0 0.0 0.00 0.20 0.04 84 1013.7
20260506214115 51 116 0.0 0.0 0.00 0.20 0.04 83 1013.6
20260506213120 51 116 0.0 0.0 0.00 0.20 0.04 83 1013.7
20260506212112 51 116 0.0 0.0 0.00 0.20 0.04 82 1013.7
20260506211145 51 116 0.0 0.0 0.00 0.20 0.04 80 1013.7
20260506210117 51 116 0.0 0.0 0.00 0.20 0.04 79 1013.6
20260506205151 51 116 0.0 0.0 0.00 0.20 0.04 79 1013.5
20260506204113 51 116 0.0 0.0 0.00 0.20 0.04 78 1013.5
20260506203146 51 116 0.0 0.0 0.00 0.20 0.04 78 1013.4
20260506202118 51 116 0.0 0.0 0.00 0.20 0.04 77 1013.4
20260506201132 51 116 0.0 0.0 0.00 0.20 0.04 76 1013.3
20260506200118 52 116 0.0 0.0 0.00 0.20 0.04 75 1013.3
20260506195151 52 116 0.0 0.0 0.00 0.20 0.04 74 1013.3
20260506194116 52 116 0.0 0.0 0.00 0.20 0.04 73 1013.2
20260506193129 53 116 0.0 0.0 0.00 0.20 0.04 73 1013.1
20260506192119 53 116 0.0 0.0 0.00 0.20 0.04 72 1013.1
20260506191132 53 116 0.0 0.0 0.00 0.20 0.04 70 1013.0
20260506190119 54 100 0.0 0.0 0.00 0.20 0.04 69 1013.0
20260506185112 54 100 0.0 0.0 0.00 0.20 0.04 69 1012.9
20260506184117 54 101 0.0 0.0 0.00 0.20 0.04 69 1013.0
20260506183130 54 101 0.0 0.0 0.00 0.20 0.04 68 1012.9
20260506182121 55 100 0.0 0.0 0.00 0.20 0.04 69 1012.9
20260506181126 55 98 0.0 0.0 0.00 0.20 0.04 70 1012.9
20260506180140 55 98 0.0 1.0 0.00 0.20 0.04 68 1012.8
20260506175130 55 92 0.0 1.0 0.00 0.20 0.04 68 1012.8
20260506174116 56 107 0.0 1.0 0.00 0.20 0.04 67 1012.8
20260506173130 56 120 0.0 0.0 0.00 0.20 0.04 69 1012.8
20260506172143 57 120 0.0 1.0 0.00 0.20 0.04 68 1012.7
20260506171134 57 118 0.0 1.0 0.00 0.20 0.04 66 1012.7
20260506170140 58 136 0.0 1.0 0.00 0.20 0.04 68 1012.6